This is the latest recevied weather packets stored in our database for station/object IW9CSJ-13. If no packets are shown the sender has not sent any weather packets the latest 1 day(s).
| Time | Temp. | Humidity | Pressure | Rain* | Wind** | Luminosity | Snow |
|---|---|---|---|---|---|---|---|
| 1836274305 | 21.11° C | 69% | 1022.3 hPa | 0 mm | 0 m/s | - | - |
| 1778044821 | 15° C | 86% | 1013.8 hPa | 0 mm | 0.45 m/s, 148° | - | - |
| 1778043919 | 15° C | 86% | 1013.9 hPa | 0 mm | 0 m/s | - | - |
| 1778043619 | 14.44° C | 86% | 1013.8 hPa | 0 mm | 0.45 m/s, 148° | - | - |
| 1778043321 | 15° C | 86% | 1013.9 hPa | 0 mm | 0 m/s | - | - |
| 1778043020 | 15° C | 86% | 1013.8 hPa | 0 mm | 0.89 m/s, 134° | - | - |
| 1778042718 | 15° C | 86% | 1013.9 hPa | 0 mm | 0.89 m/s, 142° | - | - |
| 1778040919 | 15° C | 86% | 1013.8 hPa | 0 mm | 0.45 m/s, 156° | - | - |
| 1778040019 | 15° C | 86% | 1013.6 hPa | 0 mm | 1.79 m/s, 133° | - | - |
| 1778039118 | 15° C | 85% | 1013.5 hPa | 0 mm | 1.79 m/s, 148° | - | - |
| 1778038821 | 15° C | 85% | 1013.5 hPa | 0 mm | 0.89 m/s, 152° | - | - |
| 1778038519 | 15° C | 85% | 1013.4 hPa | 0 mm | 0.89 m/s, 129° | - | - |
| 1778038221 | 15° C | 85% | 1013.4 hPa | 0 mm | 0.89 m/s, 147° | - | - |
| 1778037923 | 14.44° C | 85% | 1013.3 hPa | 0 mm | 0.45 m/s, 161° | - | - |
| 1778037026 | 14.44° C | 85% | 1013.4 hPa | 0 mm | 0 m/s | - | - |
| 1778036721 | 14.44° C | 85% | 1013.4 hPa | 0 mm | 0 m/s | - | - |
| 1778035222 | 14.44° C | 84% | 1013.5 hPa | 0 mm | 0.45 m/s, 98° | - | - |
| 1778034621 | 15° C | 84% | 1013.4 hPa | 0 mm | 0 m/s | - | - |
| 1778034321 | 15° C | 84% | 1013.4 hPa | 0 mm | 0.45 m/s, 148° | - | - |
| 1778031320 | 15° C | 85% | 1013.9 hPa | 0 mm | 0 m/s | - | - |
| 1778029822 | 15° C | 86% | 1014 hPa | 0 mm | 0.45 m/s, 158° | - | - |
| 1778028919 | 14.44° C | 86% | 1014.1 hPa | 0 mm | 0 m/s | - | - |
| 1778028620 | 14.44° C | 86% | 1014.1 hPa | 0 mm | 0.45 m/s, 352° | - | - |
| 1778025621 | 14.44° C | 88% | 1014.2 hPa | 0 mm | 0 m/s | - | - |
| 1778024120 | 14.44° C | 89% | 1014.6 hPa | 0 mm | 0 m/s | - | - |
* Rain latest hour (hover to see other rain measurements)
** Current wind speed in m/s (hover to see current wind gust speed)